    Orbital elements:
    2017 QS16                                                Earth MOID = 0.0000 AU
    Epoch 2017 Sept. 4.0 TT = JDT 2458000.5                 MPC
    M 356.99027              (2000.0)            P               Q
    n   0.40293814     Peri.  201.07665     +0.99275527     +0.11333823
    a   1.8154201      Node   152.32321     -0.09424900     +0.94047802
    e   0.4549605      Incl.    4.92698     -0.07452587     +0.32039902
    P   2.45           H   25.3           G   0.15           U   6
    Residuals in seconds of arc
    170820 T08  0.0   0.0     170822 L04  1.3+  0.1-    170822 033  1.6+  0.2-
    170820 T08  0.3-  0.1-    170822 L04  0.9+  0.3+    170822 033  0.9+  0.0
    170820 T08  0.8+  0.2-    170822 L04  1.2+  0.4-    170822 033  0.8+  0.0
    170820 T08  0.0   0.1+    170822 L04  1.2+  0.2-    170822 033  1.4+  0.1-
    170820 T08  0.1+  0.1+    170822 033  0.1-  0.0     170822 587  0.2-  0.0
    170821 C95  0.1-  0.3+    170822 033  0.8+  0.1-    170822 104  0.3-  0.3+
    170821 C95  0.5-  0.2+    170822 033  0.0   0.0     170822 587  0.3-  0.1+
    170821 C95  0.9-  0.4-    170822 033  0.8+  0.1-    170822 587  0.4-  0.1+
    170821 C95  0.7-  0.2-    170822 033  0.7+  0.0     170822 104  0.6-  0.0
    170822 595  0.1-  0.6-    170822 246  1.1+  0.3-    170822 104  0.4-  0.2+
    170822 595  0.1+  0.9+    170822 246 (1.7+  0.1-)   170822 104  0.0   0.0
    170822 595  0.0   0.7+    170822 246  1.1+  0.2-    170822 C47  0.2-  0.3-
    170822 198  0.6+  0.2+    170822 246 (2.2+  0.2-)   170822 C47  0.5-  0.0
    170822 198  0.1-  0.2-    170822 246  0.3-  0.6+    170822 C47  0.9-  0.2+
    170822 198  0.2-  0.1+    170822 246 (1.6+  0.3+)   170822 C47  0.3-  0.0
    170822 198  0.3-  0.2-    170822 246  0.1-  0.1-    170822 C47  0.3-  0.1-
    170822 198  0.2+  0.1-    170822 246  0.3+  0.6-    170822 C47  0.4-  0.2+
    170822 033  0.1+  0.0     170822 246  0.3-  0.2+    170822 C47  0.5-  0.4+
    170822 033  0.0   0.0     170822 107  0.4-  0.1-    170823 K88  0.1-  0.3+
    170822 033  0.5+  0.0     170822 107  0.4+  0.1+    170823 K88  0.1-  0.2+
    170822 587  0.1+  0.7+    170822 J95  0.0   0.1-    170823 K88  0.1+  0.2+
    170822 587  0.6-  0.5-    170822 J95  0.3-  0.2+    170823 033  0.2-  0.2+
    170822 587  0.2-  0.5-    170822 J95  0.2-  0.3-    170823 033  0.8-  0.4+
    170822 587  0.1-  0.0     170822 J95  0.5-  0.1-    170823 033  0.6+  0.1+
    170822 587  0.1-  0.4-    170822 033  0.4+  0.1+
    
    Ephemeris:
    2017 QS16                a,e,i = 1.82, 0.45, 5                   q = 0.9895
    Date    TT    R. A. (2000) Decl.     Delta      r     Elong.  Phase     V
    2017 07 24    18 50 41.8 +00 04 28   0.1359  1.1372   151.6    25.2    22.4
    ...
    2017 08 08    18 56 38.5 +03 28 19   0.06536 1.0658   141.3    36.5    21.0
    ...
    2017 08 16    19 27 04.2 +08 55 21   0.03002 1.0357   139.6    39.3    19.3
    ...
    2017 08 22    23 32 52.3 +31 58 07   0.0092271.0176   131.3    48.3    17.0
    2017 08 23    01 43 24.5 +31 20 52   0.0094191.0150   112.9    66.6    17.6
    2017 08 24    03 19 15.6 +25 17 48   0.01149 1.0125    96.7    82.6    18.5
    ...
    2017 08 30    05 37 26.8 +08 04 56   0.03487 1.0001    73.0   105.1    21.9
    ...
    2017 09 07    06 05 03.8 +04 03 04   0.06934 0.9908    74.0   102.2    23.2
    ...
    2017 09 22    06 22 52.0 +02 06 46   0.1314  0.9970    83.3    89.2    24.0
    
    A. U. Tomatic                (C) Copyright 2017 MPC           M.P.E.C. 2017-Q97
    

    Read MPEC 2017-Q96 Read MPEC 2017-Q98


    MPEC number:

    Enter an MPEC number in one of the following forms:

    • 1997-B01 (the full form)
    • J97B01 (the packed version of the full form)
    • B01 (the abbreviated form)